MELBOURNE AIRPORT, Australia

3:28 AM AEDT on March 27, 2017 (GMT +1100)
MELBOURNE AIRPORT

Weather History for 94866 - August, 2013

Change the Weather History Date:

Sunday, August 4, 2013

  Actual Average Record
Temperature  
Mean Temperature 48 °F -  
Max Temperature 55 °F 56 °F - ()
Min Temperature 42 °F 41 °F - ()
Degree Days  
Heating Degree Days 16    
Moisture  
Dew Point 41 °F    
Average Humidity 67    
Maximum Humidity 87    
Minimum Humidity 45    
Precipitation  
Precipitation 0.01 in 0.07 in - ()
Sea Level Pressure  
Sea Level Pressure 29.88 in    
Wind  
Wind Speed 12 mph ()    
Max Wind Speed 18 mph    
Max Gust Speed -    
Visibility 8.4 miles    
Events Rain    
T = Trace of Precipitation, MM = Missing Value Source: Averaged Metar Reports

Daily Weather History Graph

Daily Weather History Graph

Search for Another Location

Airport or City:

Trip Planner

Search our weather history database for the weather conditions in past years. The results will help you decide how hot, cold, wet, or windy it might be!

Date:

Astronomy

Aug. 04, 2013 Rise Set
Actual Time 7:17 AM AEST 5:36 PM AEST
Civil Twilight 6:50 AM AEST 6:03 PM AEST
Nautical Twilight 6:18 AM AEST 6:35 PM AEST
Astronomical Twilight 5:48 AM AEST 7:06 PM AEST
Moon 5:03 AM AEST (8/4) 3:19 PM AEST (8/4)
Length of Visible Light 11h 13m
Length of Day
10h 18m
Waning Crescent, 7% of the Moon is Illuminated
Aug 4
Waning Crescent
Aug 7
New
Aug 14
First Quarter
Aug 21
Full
Aug 28
Last Quarter

Hourly Weather History & Observations

Time (AEST) Temp. Windchill Dew Point Humidity Pressure Visibility Wind Dir Wind Speed Gust Speed Precip Events Conditions
12:00 AM 46 °F - 39 °F 68% 29.81 in 19 mi WNW 10.4 mph - -   Partly Cloudy
12:00 AM 46.4 °F 41.5 °F 39.2 °F 76% 29.80 in 6.2 mi WNW 10.4 mph - N/A   Partly Cloudy
12:30 AM 46.4 °F 40.1 °F 39.2 °F 76% 29.80 in 6.2 mi West 15.0 mph - N/A   Partly Cloudy
1:00 AM 47 °F - 39 °F 66% 29.81 in - West 13.8 mph - -  
1:00 AM 46.4 °F 40.4 °F 39.2 °F 76% 29.80 in 6.2 mi West 13.8 mph - N/A   Partly Cloudy
1:30 AM 46.4 °F 41.1 °F 39.2 °F 76% 29.80 in 6.2 mi West 11.5 mph - N/A   Scattered Clouds
2:00 AM 46.4 °F 41.1 °F 39.2 °F 76% 29.80 in 6.2 mi WNW 11.5 mph - N/A   Scattered Clouds
2:30 AM 46.4 °F 41.5 °F 39.2 °F 76% 29.80 in 6.2 mi NW 10.4 mph - N/A   Mostly Cloudy
3:00 AM 48 °F - 38 °F 59% 29.82 in 19 mi NW 11.5 mph - -   Partly Cloudy
3:00 AM 48.2 °F - 37.4 °F 66% 29.80 in 6.2 mi NW 11.5 mph - N/A   Mostly Cloudy
3:30 AM 48.2 °F - 39.2 °F 71% 29.80 in 6.2 mi NW 10.4 mph - N/A   Mostly Cloudy
4:00 AM 48 °F - 38 °F 60% 29.82 in - WNW 12.7 mph - -  
4:00 AM 48.2 °F - 39.2 °F 71% 29.80 in 6.2 mi WNW 12.7 mph - N/A   Mostly Cloudy
4:30 AM 46.4 °F 40.4 °F 39.2 °F 76% 29.83 in 6.2 mi West 13.8 mph - N/A   Mostly Cloudy
5:00 AM 46.4 °F 41.5 °F 39.2 °F 76% 29.83 in 6.2 mi West 10.4 mph - N/A   Mostly Cloudy
5:30 AM 46.4 °F 41.1 °F 39.2 °F 76% 29.83 in 6.2 mi West 11.5 mph - N/A   Mostly Cloudy
6:00 AM 45 °F - 40 °F 77% 29.87 in 19 mi WNW 11.5 mph - -   Partly Cloudy
6:00 AM 44.6 °F 38.8 °F 41.0 °F 87% 29.86 in 6.2 mi WNW 11.5 mph - N/A   Mostly Cloudy
6:30 AM 44.6 °F 38.8 °F 39.2 °F 81% 29.86 in 6.2 mi WNW 11.5 mph - N/A   Mostly Cloudy
7:00 AM 44 °F - 38 °F 74% 29.90 in - West 12.7 mph - -  
7:00 AM 44.6 °F 38.4 °F 39.2 °F 81% 29.89 in 6.2 mi West 12.7 mph - N/A   Scattered Clouds
7:30 AM 44.6 °F 39.2 °F 39.2 °F 81% 29.89 in 6.2 mi WNW 10.4 mph - N/A   Mostly Cloudy
8:00 AM 44.6 °F 39.7 °F 39.2 °F 81% 29.92 in 6.2 mi NW 9.2 mph - N/A   Mostly Cloudy
8:30 AM 48.2 °F - 39.2 °F 71% 29.92 in 6.2 mi NW 10.4 mph - N/A   Mostly Cloudy
9:00 AM 49 °F - 40 °F 61% 29.94 in 19 mi WNW 10.4 mph - -   Partly Cloudy
9:00 AM 50.0 °F - 39.2 °F 66% 29.92 in 6.2 mi WNW 10.4 mph - N/A   Mostly Cloudy
9:30 AM 50.0 °F - 41.0 °F 71% 29.92 in 6.2 mi WNW 10.4 mph - N/A   Mostly Cloudy
10:00 AM 51 °F - 39 °F 54% 29.95 in - WNW 12.7 mph - -  
10:00 AM 51.8 °F - 39.2 °F 62% 29.95 in 6.2 mi WNW 12.7 mph - N/A   Mostly Cloudy
10:30 AM 51.8 °F - 39.2 °F 62% 29.95 in 6.2 mi West 13.8 mph - N/A   Mostly Cloudy
11:00 AM 53.6 °F - 39.2 °F 58% 29.95 in 6.2 mi West 18.4 mph - N/A   Mostly Cloudy
11:30 AM 53.6 °F - 39.2 °F 58% 29.92 in - WNW 16.1 mph - N/A   Clear
12:00 PM 54 °F - 41 °F 50% 29.95 in 19 mi West 15.0 mph - -   Partly Cloudy
12:00 PM 53.6 °F - 41.0 °F 62% 29.92 in 6.2 mi West 15.0 mph - N/A   Mostly Cloudy
12:30 PM 55.4 °F - 41.0 °F 58% 29.92 in 6.2 mi West 17.3 mph - N/A   Mostly Cloudy
1:00 PM 55 °F - 40 °F 45% 29.93 in - West 15.0 mph - -  
1:00 PM 55.4 °F - 39.2 °F 54% 29.92 in 6.2 mi West 15.0 mph - N/A   Mostly Cloudy
1:30 PM 55.4 °F - 39.2 °F 54% 29.92 in 6.2 mi West 11.5 mph - N/A   Mostly Cloudy
2:00 PM 53.6 °F - 41.0 °F 62% 29.92 in 6.2 mi WSW 9.2 mph - N/A   Mostly Cloudy
2:30 PM 55.4 °F - 41.0 °F 58% 29.89 in 6.2 mi WNW 12.7 mph - N/A   Mostly Cloudy
3:00 PM 55 °F - 41 °F 49% 29.91 in 16 mi WNW 13.8 mph - -   Mostly Cloudy
3:00 PM 55.4 °F - 41.0 °F 58% 29.89 in 6.2 mi WNW 13.8 mph - N/A Rain Light Rain Showers
3:30 PM 55.4 °F - 41.0 °F 58% 29.89 in 6.2 mi NNW 15.0 mph - N/A   Mostly Cloudy
4:00 PM 54 °F - 41 °F 52% 29.91 in - NNW 15.0 mph - -  
4:00 PM 53.6 °F - 41.0 °F 62% 29.89 in 6.2 mi NNW 15.0 mph - N/A Rain Light Rain Showers
4:30 PM 51.8 °F - 44.6 °F 76% 29.89 in 6.2 mi NW 12.7 mph - N/A Rain Light Rain Showers
5:00 PM 51.8 °F - 42.8 °F 71% 29.89 in 6.2 mi NW 12.7 mph - N/A   Mostly Cloudy
5:30 PM 51.8 °F - 42.8 °F 71% 29.89 in 6.2 mi NNW 11.5 mph - N/A   Mostly Cloudy
6:00 PM 52 °F - 43 °F 62% 29.92 in 19 mi NNW 12.7 mph - -   Partly Cloudy
6:00 PM 51.8 °F - 42.8 °F 71% 29.89 in 6.2 mi NNW 12.7 mph - N/A   Mostly Cloudy
6:30 PM 53.6 °F - 41.0 °F 62% 29.92 in 6.2 mi NNW 12.7 mph - N/A Rain Light Rain Showers
7:00 PM 52 °F - 42 °F 59% 29.93 in - NNW 12.7 mph - -  
7:00 PM 51.8 °F - 42.8 °F 71% 29.92 in - NNW 12.7 mph - N/A   Clear
7:30 PM 51.8 °F - 42.8 °F 71% 29.92 in 6.2 mi North 12.7 mph - N/A Rain Light Rain Showers
8:00 PM 51.8 °F - 42.8 °F 71% 29.92 in - North 13.8 mph - N/A   Clear
8:30 PM 51.8 °F - 42.8 °F 71% 29.89 in - North 17.3 mph - N/A   Clear
9:00 PM 53 °F - 43 °F 59% 29.92 in 19 mi North 13.8 mph - -   Partly Cloudy
9:00 PM 51.8 °F - 42.8 °F 71% 29.89 in - North 13.8 mph - N/A   Clear
9:30 PM 51.8 °F - 42.8 °F 71% 29.89 in - North 15.0 mph - N/A   Clear
10:00 PM 53 °F - 44 °F 62% 29.92 in - North 15.0 mph - -  
10:00 PM 51.8 °F - 44.6 °F 76% 29.89 in - North 15.0 mph - N/A   Clear
10:30 PM 53.6 °F - 44.6 °F 72% 29.89 in - North 12.7 mph - N/A   Clear
11:00 PM 51.8 °F - 44.6 °F 76% 29.89 in - NNW 13.8 mph - N/A   Clear
11:30 PM 53.6 °F - 44.6 °F 72% 29.89 in - NNW 15.0 mph - N/A   Clear